This is the latest recevied weather packets stored in our database for station/object OM2RC-6. If no packets are shown the sender has not sent any weather packets the latest 10 day(s).
| Time | Temp. | Humidity | Pressure | Rain* | Wind** | Luminosity | Snow |
|---|---|---|---|---|---|---|---|
| 1777890228 | 22.78° C | 46% | 1017 hPa | - | - | - | - |
| 1777889908 | 22.22° C | 46% | 1016.9 hPa | - | - | - | - |
| 1777889589 | 22.78° C | 46% | 1016.9 hPa | - | - | - | - |
| 1777889270 | 21.67° C | 47% | 1016.9 hPa | - | - | - | - |
| 1777888951 | 21.67° C | 48% | 1016.9 hPa | - | - | - | - |
| 1777888632 | 22.22° C | 47% | 1017.1 hPa | - | - | - | - |
| 1777888313 | 21.67° C | 48% | 1017.1 hPa | - | - | - | - |
| 1777887994 | 21.67° C | 48% | 1017.1 hPa | - | - | - | - |
| 1777887675 | 21.67° C | 48% | 1017.1 hPa | - | - | - | - |
| 1777887356 | 21.11° C | 49% | 1017.3 hPa | - | - | - | - |
| 1777887037 | 20.56° C | 49% | 1017.4 hPa | - | - | - | - |
| 1777886718 | 20° C | 51% | 1017.4 hPa | - | - | - | - |
| 1777886399 | 21.11° C | 50% | 1017.4 hPa | - | - | - | - |
| 1777886079 | 20.56° C | 51% | 1017.5 hPa | - | - | - | - |
| 1777885760 | 20° C | 52% | 1017.5 hPa | - | - | - | - |
| 1777885441 | 20° C | 53% | 1017.5 hPa | - | - | - | - |
| 1777885122 | 20° C | 55% | 1017.6 hPa | - | - | - | - |
| 1777884803 | 19.44° C | 56% | 1017.6 hPa | - | - | - | - |
| 1777884484 | 18.89° C | 57% | 1017.7 hPa | - | - | - | - |
| 1777884165 | 18.89° C | 58% | 1017.6 hPa | - | - | - | - |
| 1777883846 | 18.89° C | 58% | 1017.7 hPa | - | - | - | - |
| 1777883527 | 18.89° C | 59% | 1017.6 hPa | - | - | - | - |
| 1777883208 | 17.78° C | 60% | 1017.4 hPa | - | - | - | - |
| 1777882889 | 17.78° C | 59% | 1017.6 hPa | - | - | - | - |
| 1777882570 | 18.33° C | 58% | 1017.5 hPa | - | - | - | - |
* Rain since midnight (hover to see other rain measurements)
** Current wind speed in m/s (hover to see current wind gust speed)